Lapse_Rate
5.2 7.0 9.0 8.7 6.5 6.5 6.5 6.5 6.5 6.5 6.5 7.3 7.6 7.0 6.6 7.3 6.5 6.5 9.3 7.2 5.9 3.9 2.5 1.4 3.1 2.8 2.9 2.7 2.7 3.1 3.1 3.6 4.0 4.6 6.1 7.1 7.1 7.1 6.9 6.8 7.0 7.2 7.2 6.6 6.6 7.1 7.0 6.2 6.3
4.7 8.2 9.0 7.6 6.5 6.5 6.5 6.5 6.5 6.5 7.0 7.7 7.5 7.3 6.9 6.5 8.3 8.5 8.9 7.2 6.3 4.0 2.7 1.5 2.0 2.6 1.8 2.7 2.4 2.0 2.3 2.6 3.1 3.5 4.6 5.9 7.2 7.4 7.3 7.2 7.0 7.2 7.2 6.6 6.5 6.9 6.6 6.1 6.0
5.6 7.7 7.5 6.5 6.5 6.5 6.5 6.5 6.5 6.8 7.5 7.3 7.1 7.8 7.3 7.0 7.7 8.7 9.4 8.1 8.6 5.5 3.3 1.9 1.6 1.7 1.5 1.6 2.1 1.6 1.5 1.7 1.9 2.4 3.5 4.2 5.5 7.4 7.4 7.3 7.1 7.3 7.0 7.0 6.4 6.3 6.2 5.9 6.3
8.7 8.6 7.9 6.5 6.5 6.5 6.5 6.5 6.6 6.6 7.3 7.7 7.5 6.5 8.1 8.9 8.7 9.0 8.3 6.8 6.6 5.4 3.9 1.9 1.2 0.8 0.7 1.1 1.2 1.2 1.8 1.5 1.5 1.6 2.3 2.8 3.7 4.5 6.8 6.9 6.9 6.9 6.8 7.1 7.0 6.2 5.9 5.9 6.0
8.9 7.8 6.5 6.5 6.5 6.5 6.5 6.8 7.1 6.5 6.9 7.2 7.5 6.7 7.4 8.8 9.5 9.5 8.7 7.4 4.8 4.2 2.7 1.7 1.0 0.3 0.4 0.2 0.4 0.6 0.6 1.2 1.3 1.4 1.5 1.7 2.1 3.0 4.2 6.3 6.6 6.6 6.7 7.2 6.9 6.6 5.8 5.8 5.7
7.3 7.4 6.5 6.5 6.5 6.5 6.5 7.2 7.1 6.8 7.1 7.3 7.1 7.1 7.5 9.2 9.2 9.4 8.4 8.0 6.0 3.7 2.5 1.5 0.7 0.3 -0.5 -0.2 -0.5 -0.6 -0.3 0.1 0.5 1.1 1.1 0.9 1.4 2.3 3.4 4.7 6.4 6.3 6.6 6.9 7.1 6.4 6.3 6.1 5.4
6.6 6.5 6.5 6.5 6.5 6.5 6.5 7.5 6.7 6.7 6.9 6.9 7.8 6.5 7.9 8.6 9.3 9.0 9.5 9.8 8.5 4.2 3.1 1.9 0.7 0.0 -0.6 -0.9 -0.7 -0.9 -1.2 -0.9 -0.3 -0.1 0.3 0.3 0.4 1.6 2.7 3.2 4.7 6.5 6.5 6.6 6.9 6.4 6.3 6.1 5.3
7.5 6.5 6.5 6.5 6.5 6.5 6.7 7.2 7.4 7.1 6.8 8.3 8.2 6.6 6.9 8.5 9.0 9.2 9.4 9.6 9.5 6.8 4.3 2.7 1.5 0.7 -0.1 -0.1 -0.8 -1.2 -1.2 -1.2 -0.8 -0.7 -0.6 -0.5 -0.1 0.2 2.2 3.8 3.6 3.4 6.6 6.4 6.5 6.3 6.5 6.2 5.6
8.1 6.5 6.5 6.5 6.5 6.5 7.2 6.6 7.6 8.1 7.5 7.8 8.1 8.0 8.4 8.1 9.0 9.1 9.1 9.3 9.3 8.4 5.8 4.2 3.1 2.1 1.0 1.1 -0.1 -1.2 -1.3 -1.2 -1.2 -0.8 -0.9 -0.6 -1.1 -0.5 1.2 1.3 1.7 2.3 4.2 6.3 6.4 6.7 6.8 7.1 5.8
6.6 6.5 6.5 6.5 6.5 6.5 6.8 6.9 7.2 7.1 7.1 7.2 7.7 8.5 8.8 8.9 8.9 8.6 8.6 8.6 8.4 7.1 6.1 4.6 3.9 3.3 2.4 2.3 0.9 0.3 -0.2 -0.6 -0.8 -0.5 -1.1 -1.1 -0.4 -1.2 0.1 0.5 1.7 2.8 4.2 5.7 6.6 7.2 7.1 7.1 6.9
6.8 6.5 6.5 6.7 7.1 7.2 6.8 6.8 7.5 6.8 6.5 7.2 7.3 7.9 8.5 8.6 8.6 8.6 8.7 8.6 8.0 7.8 6.0 4.7 4.1 3.9 3.5 2.4 1.9 1.8 0.9 0.3 -0.1 -0.2 -1.1 -1.0 -0.7 -1.2 -0.9 0.3 0.6 2.5 6.8 6.7 6.4 6.9 7.3 8.2 9.0
6.5 6.7 6.8 6.9 7.3 7.0 6.5 7.3 6.8 7.1 7.1 8.0 8.1 8.4 8.5 8.4 8.4 8.5 8.6 8.4 8.1 8.9 7.3 5.9 4.6 4.4 4.1 3.3 3.7 2.6 2.1 1.6 1.3 -0.0 0.4 -0.4 -0.6 -0.9 -1.1 -0.7 0.8 0.8 4.0 6.0 6.8 5.8 7.3 8.2 8.6
6.5 6.5 7.0 7.3 7.3 7.2 7.3 6.8 6.7 7.0 7.9 8.4 8.4 8.4 8.3 8.4 8.5 8.8 8.9 8.9 8.8 7.9 7.0 6.1 5.3 4.9 4.3 4.0 3.9 3.4 3.4 3.5 2.2 1.6 1.1 0.8 0.4 -0.1 -0.8 -1.0 -0.2 0.8 1.0 6.5 4.9 5.0 6.1 6.5 7.6
6.9 6.8 6.9 7.2 7.0 7.2 6.6 6.7 7.0 7.3 8.1 8.0 8.1 8.1 8.3 8.4 8.5 8.7 8.8 8.8 8.4 7.9 6.9 6.8 6.3 5.7 5.2 5.1 4.5 4.2 3.4 3.3 3.8 3.7 2.8 1.9 1.6 0.7 -0.3 -0.4 -0.6 -0.1 0.9 3.0 5.9 4.8 4.1 6.0 7.0
7.1 6.5 6.5 6.7 6.9 6.6 7.1 6.5 6.5 7.5 7.9 7.6 7.8 8.0 8.1 8.4 8.6 8.6 8.2 7.9 6.9 7.1 6.8 6.6 7.0 6.4 6.1 5.9 5.3 4.8 4.9 4.4 4.3 4.5 4.6 4.1 3.2 2.3 0.9 -0.1 -0.4 -0.1 -0.3 1.0 5.4 6.1 5.0 4.7 6.1
6.5 6.5 6.5 6.5 6.6 6.9 6.8 6.5 6.5 7.6 7.5 7.3 7.6 7.8 8.0 8.2 8.5 8.8 7.8 7.3 7.1 7.2 6.8 6.8 7.0 6.6 6.3 5.9 5.2 5.1 5.1 4.8 4.6 5.0 5.3 5.5 4.6 3.9 2.8 1.7 0.7 0.7 -0.4 0.6 2.3 6.2 6.1 4.7 5.2
6.5 6.5 6.5 6.5 6.6 6.5 6.5 6.5 6.5 7.6 7.4 7.1 7.4 7.6 7.8 8.0 8.4 8.8 8.6 7.3 7.0 7.2 7.2 7.2 7.0 6.9 6.7 6.2 5.8 5.8 6.4 6.5 5.7 5.2 5.1 5.1 5.4 4.6 3.5 3.0 1.4 0.5 0.2 -0.5 1.1 5.9 6.5 6.2 5.3
6.5 6.5 6.5 6.5 6.5 6.5 6.5 6.5 6.5 7.3 7.2 7.1 7.3 7.5 7.7 7.8 8.1 8.7 8.4 7.3 7.0 7.6 7.5 7.5 7.2 6.9 6.9 6.6 7.6 8.3 8.8 9.2 9.1 7.3 5.6 5.0 4.5 4.1 4.4 3.5 3.1 1.5 0.1 -0.6 0.1 2.7 5.7 6.1 5.8
6.5 6.5 6.5 6.5 6.5 6.5 6.5 6.5 6.5 6.8 7.1 7.0 7.1 7.4 7.5 7.8 8.4 8.7 8.1 7.6 7.9 8.2 7.2 7.1 6.7 6.7 6.7 6.9 7.5 9.2 9.0 9.3 8.8 8.4 6.7 5.2 4.4 4.1 4.1 4.6 3.7 2.9 1.3 0.6 -0.6 0.0 5.3 5.8 4.8
6.5 6.5 6.5 6.5 6.5 6.5 6.5 6.5 6.5 6.5 6.5 6.6 6.9 7.2 7.5 7.8 8.1 8.3 8.1 8.6 7.9 6.1 6.7 6.4 6.1 6.2 6.1 6.7 7.9 9.3 9.5 9.7 9.6 8.9 8.0 7.0 5.8 5.1 5.2 5.6 5.2 4.6 4.1 2.3 1.9 1.2 2.3 6.2 5.2
6.5 6.5 6.5 6.5 6.5 6.5 6.5 6.5 6.5 6.5 6.7 6.9 7.2 7.3 7.6 7.7 7.8 8.2 5.7 6.0 5.3 4.8 5.4 5.5 5.4 5.5 5.7 6.6 8.5 9.4 9.9 9.8 9.4 9.4 9.4 9.1 8.3 6.6 5.3 5.2 5.4 4.1 4.9 2.6 2.6 1.6 1.9 5.9 5.7
6.5 6.5 6.5 6.5 6.5 6.5 6.5 6.5 6.5 6.5 6.5 6.5 6.9 7.2 7.4 7.7 8.0 8.2 8.0 3.5 4.6 3.6 4.4 4.6 5.0 4.8 5.7 7.0 8.0 8.9 9.1 9.0 9.1 7.7 6.9 7.8 7.6 6.8 5.6 4.9 4.8 4.9 5.0 3.3 2.4 3.2 2.4 5.0 5.8
6.5 6.5 6.5 6.5 6.5 6.5 6.5 6.5 6.5 6.5 6.5 6.5 6.5 7.0 7.3 7.7 7.7 7.7 8.1 3.9 3.6 3.1 3.1 3.9 4.0 4.4 5.6 6.2 6.9 7.4 8.0 8.8 8.2 6.8 7.1 6.7 7.1 7.4 6.6 5.7 5.1 5.3 5.5 4.2 3.8 2.6 2.9 -0.2 6.1
6.5 6.5 6.5 6.5 6.5 6.5 6.5 6.5 6.5 6.5 6.5 6.5 6.6 7.0 7.0 6.4 7.0 6.6 6.8 6.2 3.9 3.8 3.4 3.7 4.1 4.6 5.4 5.6 5.8 6.3 6.5 6.6 7.4 7.0 7.0 6.8 6.9 6.8 7.1 6.5 6.2 6.2 7.0 5.8 4.7 4.2 4.1 1.8 4.9
6.5 6.5 6.5 6.5 6.5 6.5 6.5 6.5 6.5 6.5 6.5 6.5 6.5 6.8 6.8 5.3 5.5 5.8 6.3 6.7 5.7 4.6 4.2 3.7 4.1 4.0 4.8 4.7 5.1 5.3 5.7 6.2 6.9 7.6 7.2 8.4 7.1 6.5 5.8 7.0 5.9 5.9 6.5 7.2 7.1 5.0 4.4 5.8 1.2
6.5 6.5 6.5 6.5 6.5 6.5 6.5 6.5 6.5 6.5 6.6 6.9 5.8 5.2 5.5 5.2 5.2 5.0 5.5 5.9 5.0 4.7 4.1 3.9 3.9 3.7 4.3 4.1 4.3 4.8 5.3 6.4 6.3 6.2 6.6 7.8 7.7 7.2 6.8 7.0 7.0 6.0 7.0 8.1 7.9 5.5 5.8 5.8 3.9
6.5 6.5 6.5 6.5 6.5 6.5 6.5 6.5 6.5 6.5 6.5 6.6 6.7 7.0 6.4 6.0 5.3 5.3 5.4 5.3 5.1 4.6 3.8 3.5 3.2 3.5 3.8 4.3 4.4 4.5 5.3 6.1 5.8 6.3 6.9 7.2 7.3 7.5 7.8 7.8 7.5 6.2 6.1 7.6 6.9 4.8 3.4 3.3 2.7
6.5 6.5 6.5 6.5 6.5 6.5 6.5 6.5 6.5 6.5 6.5 6.5 6.5 6.7 6.2 6.2 5.6 4.9 5.0 5.1 4.9 4.1 3.5 3.1 3.6 4.2 4.2 4.4 4.7 4.7 4.8 5.5 5.8 6.4 6.7 7.5 8.2 8.7 8.8 8.7 8.9 8.7 8.1 7.9 7.7 6.4 4.4 4.5 1.5
6.5 6.5 6.5 6.5 6.5 6.5 6.5 6.5 6.5 6.5 6.5 6.5 6.5 6.4 6.3 5.9 5.7 4.9 4.6 4.6 4.1 3.8 3.3 3.1 4.0 4.2 4.0 4.1 4.4 3.9 4.6 5.0 5.6 6.4 6.7 7.6 7.9 8.6 8.7 8.7 8.6 8.6 8.1 7.3 7.1 4.4 3.4 3.9 1.9
6.5 6.5 6.5 6.5 6.5 6.5 6.5 6.5 6.5 6.5 6.5 6.6 6.5 6.4 6.3 6.7 5.3 4.5 4.0 4.0 3.9 4.1 4.4 3.6 4.2 4.2 4.4 4.1 4.0 3.6 4.3 4.9 5.4 5.8 6.3 6.4 7.0 7.7 7.9 7.7 7.6 7.6 7.4 6.6 7.8 6.1 6.7 4.2 3.8
Wind_Speed
14 5 4 4 5 6 11 6 2 7 4 3 5 3 10 14 6 2 9 10 12 11 15 18 26 27 28 28 29 28 28 27 25 21 19 4 4 5 4 5 6 5 4 5 8 11 11 14 13
8 4 4 2 6 11 11 11 10 8 8 7 5 4 7 6 10 6 6 11 11 12 14 17 23 25 26 26 27 27 26 26 25 23 20 18 5 6 6 5 6 5 4 3 6 11 12 14 13
6 4 4 5 8 13 10 10 12 9 6 8 5 9 4 4 7 4 7 9 11 11 13 15 21 23 25 24 25 26 26 25 24 24 21 19 17 9 8 7 7 5 5 5 5 12 13 14 13
4 4 4 6 13 11 5 7 14 12 5 5 7 8 6 6 5 3 6 8 10 11 14 15 18 22 22 22 24 24 24 25 24 23 22 20 18 17 11 8 8 7 7 6 9 11 16 16 14
4 4 9 9 17 4 3 9 10 13 9 9 6 8 7 6 7 5 6 7 10 11 14 15 17 19 20 20 22 24 24 24 23 23 21 21 20 17 15 11 10 9 7 7 11 12 15 15 16
5 4 8 16 17 7 6 8 9 9 7 6 5 11 6 10 5 5 5 7 9 10 13 15 16 18 19 20 21 23 24 24 24 22 22 22 20 17 17 14 9 10 9 8 11 14 15 17 17
9 8 15 16 13 8 9 9 10 10 9 5 2 8 8 8 5 4 5 6 8 11 13 15 18 19 20 18 21 23 22 23 22 21 23 23 20 18 17 18 11 10 8 9 11 14 16 18 17
4 4 15 15 12 8 10 10 4 9 8 6 3 6 6 9 3 3 3 6 7 9 12 15 18 19 20 18 19 21 21 21 21 21 21 24 19 22 18 19 15 17 10 11 14 16 18 18 18
1 6 11 17 15 4 11 9 6 3 9 4 3 7 9 7 3 3 4 5 6 7 9 13 16 18 20 19 20 19 19 20 20 20 21 19 17 17 18 17 24 16 13 14 16 17 18 17 16
8 11 14 6 7 4 10 11 11 8 11 6 10 9 7 5 4 4 5 6 8 9 10 12 15 16 18 17 19 18 18 16 17 17 18 15 16 17 18 15 19 21 11 13 16 19 19 17 13
4 7 4 5 5 5 10 8 7 7 10 10 14 11 8 5 4 3 4 5 7 8 9 11 14 15 16 16 16 15 15 15 15 16 18 16 14 13 14 13 12 16 11 10 12 14 15 17 14
5 1 1 5 4 5 9 8 7 8 6 10 9 9 7 6 4 2 3 3 5 7 8 10 14 14 15 15 13 15 14 15 14 17 17 15 11 11 11 10 12 12 17 7 11 10 13 16 17
6 5 4 5 5 4 3 7 3 9 10 10 10 8 7 5 4 4 2 2 4 6 8 10 12 13 14 14 14 14 14 13 16 16 16 14 14 8 12 11 12 12 15 12 8 11 10 12 16
3 7 8 5 4 3 4 5 2 10 13 11 11 10 8 6 5 4 3 1 4 5 7 9 10 12 14 13 14 13 14 16 16 15 15 17 15 13 11 9 10 12 13 18 10 8 10 9 11
11 7 6 7 5 2 1 7 9 8 13 12 11 8 7 6 6 3 1 2 4 5 7 9 9 12 12 12 14 13 14 15 15 15 16 16 16 15 14 8 7 12 16 18 16 10 9 9 7
5 4 6 9 7 5 3 4 11 11 13 12 10 8 7 7 6 4 3 0 2 5 7 8 8 10 12 12 13 13 14 15 15 16 16 16 17 17 16 8 7 12 15 15 11 10 10 9 9
7 6 12 6 6 3 9 2 7 10 11 11 9 9 7 7 7 6 5 2 2 4 6 8 9 10 10 13 13 13 14 14 15 17 17 17 17 18 15 11 11 15 11 9 10 11 11 13 10
4 7 3 7 6 7 10 15 6 11 12 13 10 8 10 8 8 7 7 3 3 4 6 8 8 10 10 10 11 11 10 13 15 15 16 19 18 19 18 14 14 14 8 9 11 13 11 10 10
1 1 3 2 3 3 14 16 13 15 15 16 14 15 11 8 7 7 8 5 4 4 7 8 9 10 9 8 9 9 9 10 10 15 18 19 18 19 19 13 12 12 9 11 13 12 12 12 9
1 3 5 2 1 3 10 17 16 16 18 16 13 12 12 8 7 9 8 6 3 6 7 8 9 10 9 8 9 10 10 10 11 14 17 18 19 20 19 15 12 12 10 12 13 15 12 12 12
1 3 3 4 5 11 10 11 9 6 5 5 11 9 7 7 6 5 7 6 2 5 6 7 8 10 9 11 9 9 10 10 10 10 9 12 18 20 20 20 14 13 12 11 13 13 14 13 14
7 3 0 4 4 4 1 6 5 6 7 10 13 12 9 8 7 6 5 3 2 3 5 6 8 9 9 11 11 14 12 12 11 11 11 11 20 20 22 21 19 15 11 13 13 14 16 15 16
3 1 2 1 3 4 7 5 3 6 7 11 12 10 7 6 5 5 4 4 1 3 4 5 7 8 10 10 12 11 13 11 11 11 17 16 14 21 21 21 17 16 12 15 15 16 16 13 16
2 3 4 2 2 4 6 4 5 5 4 13 10 8 7 5 4 5 4 5 4 3 3 5 6 9 9 9 11 13 15 15 13 13 13 12 12 11 15 19 15 16 16 16 14 15 20 21 17
1 3 3 4 4 3 2 4 8 2 2 12 11 8 6 4 5 5 6 6 4 4 4 4 6 9 9 9 11 13 15 16 18 16 12 16 13 12 15 16 16 14 17 17 16 17 16 19 17
1 2 3 5 3 3 3 6 1 3 5 6 4 3 4 5 5 6 7 7 5 5 4 5 7 8 9 9 10 12 14 10 11 14 13 12 12 14 17 17 18 20 19 16 15 13 15 18 18
4 3 2 5 2 4 3 5 6 7 5 6 6 7 6 5 4 6 6 7 6 5 5 5 6 8 8 9 9 11 13 14 14 17 16 13 16 14 18 19 20 22 21 19 17 15 19 16 19
2 2 2 3 4 5 5 4 5 8 12 10 9 8 5 5 5 6 6 7 5 3 4 5 6 9 8 10 10 10 12 15 15 15 17 18 17 18 19 20 20 20 21 21 18 15 19 18 15
4 3 1 2 3 4 4 1 1 5 11 12 9 7 5 5 6 5 6 5 4 4 4 5 6 7 8 9 10 12 13 14 15 15 16 16 17 18 19 20 20 20 20 19 19 19 17 21 22
3 2 6 4 4 1 3 7 3 4 5 3 5 5 3 5 6 5 5 5 5 5 4 4 6 6 7 8 10 12 13 14 15 15 16 16 17 17 19 20 20 20 20 20 22 21 21 18 26
Wind_Direction
303 277 256 217 216 227 232 191 75 151 114 48 47 322 77 34 9 63 115 28 8 8 3 -0 3 6 9 11 15 18 21 20 22 20 6 275 204 237 236 210 201 204 166 152 162 154 139 125 118
301 270 227 222 243 216 233 183 183 137 96 137 80 70 31 82 59 86 162 14 0 13 10 3 5 5 11 8 14 16 18 20 17 19 12 6 250 233 257 251 223 209 215 173 171 152 140 122 118
257 238 220 215 232 239 238 166 144 125 127 169 110 39 53 88 45 68 25 0 358 15 16 6 5 6 9 9 9 14 15 15 16 16 12 10 1 282 256 253 251 243 230 210 165 146 139 129 120
200 199 241 240 230 233 341 141 135 146 122 158 116 89 91 5 88 52 7 9 6 9 8 8 7 9 8 8 9 8 12 13 11 9 10 8 3 359 296 262 260 259 262 198 175 153 142 133 128
216 247 231 233 238 114 123 121 165 169 135 152 186 134 102 102 96 56 18 22 11 8 3 9 7 8 7 8 7 5 9 9 8 4 5 3 357 352 344 295 259 260 254 221 182 165 146 138 136
204 251 228 229 228 133 155 160 168 168 143 130 167 124 101 129 89 50 31 23 23 12 7 4 6 6 8 5 7 4 2 5 4 4 358 357 357 358 346 346 268 252 247 224 203 174 164 151 138
244 217 242 249 245 161 179 165 182 170 162 130 98 147 126 134 67 40 28 40 37 21 11 6 5 3 4 4 5 359 2 360 360 2 354 353 352 351 348 339 340 262 244 225 209 183 171 159 147
269 259 246 240 246 225 129 164 144 163 141 102 314 176 162 112 70 57 62 42 38 32 19 12 5 3 0 357 3 358 358 356 356 360 358 353 351 350 348 329 1 342 242 231 218 194 185 168 152
257 238 240 229 234 174 142 164 150 82 130 132 80 64 90 106 107 66 57 52 34 33 29 14 8 3 357 354 357 355 356 355 354 355 357 354 349 345 338 335 320 320 306 236 226 204 198 187 164
219 228 241 25 60 145 169 190 156 169 150 143 130 118 125 128 98 71 44 30 21 18 19 16 8 3 360 356 351 351 351 352 349 347 354 346 341 336 330 332 318 304 296 270 224 219 201 184 172
185 249 94 60 67 123 158 182 167 194 195 178 178 156 147 136 113 86 61 40 21 13 13 10 4 0 0 354 347 348 346 345 341 344 343 336 336 336 335 327 327 317 252 245 227 213 197 200 189
218 357 19 122 98 132 170 145 193 208 77 112 124 140 151 153 147 109 75 46 22 15 10 6 1 357 358 348 348 340 337 335 335 333 334 335 331 329 328 324 319 311 302 202 209 192 201 212 204
220 137 102 111 132 126 139 191 224 207 142 141 141 156 162 164 152 142 126 80 25 13 7 3 358 356 353 345 342 337 333 327 327 323 323 328 322 319 321 319 312 307 306 276 198 188 192 208 212
116 147 133 150 129 105 226 183 209 196 159 168 174 175 171 174 173 171 152 49 21 10 5 360 356 354 346 342 337 332 328 324 320 315 314 316 311 310 306 307 309 306 300 307 218 202 186 192 213
135 134 161 179 159 147 323 230 226 152 172 184 186 184 181 187 183 196 140 13 4 3 355 357 350 349 343 336 334 327 322 319 314 311 308 304 303 302 302 295 294 297 301 294 263 210 191 168 228
200 199 202 148 176 138 218 233 171 161 179 187 192 190 193 196 197 180 172 271 348 345 347 345 346 342 341 334 330 323 322 317 311 307 304 300 298 297 297 296 289 293 302 302 299 213 189 176 219
198 259 214 157 201 158 210 241 154 179 197 193 199 205 194 198 189 188 182 213 313 332 334 339 340 343 336 330 325 318 315 312 307 303 304 303 300 296 292 289 288 291 291 294 286 237 205 196 180
250 229 241 236 153 221 223 246 186 196 205 211 209 206 207 198 203 185 181 201 258 314 333 334 342 335 337 331 321 316 313 304 303 297 293 296 297 295 292 288 286 286 288 278 282 289 195 190 182
344 203 260 81 97 279 240 251 246 195 213 217 224 225 210 200 183 176 186 205 251 311 336 345 339 336 337 335 326 320 311 303 297 293 290 290 289 288 286 285 282 277 274 280 279 287 213 186 167
335 307 272 118 86 298 292 279 261 231 220 211 216 221 202 188 184 188 209 215 265 321 347 345 335 329 336 327 317 304 296 292 289 285 281 280 281 281 278 273 271 270 269 267 262 270 284 184 177
173 282 279 290 307 249 290 263 214 204 264 217 199 214 204 203 220 217 158 215 269 318 356 326 323 326 331 318 306 297 293 289 293 294 298 294 291 288 285 281 280 276 274 269 270 279 280 203 181
271 68 46 310 326 282 334 292 199 169 194 205 198 195 201 206 213 232 215 162 241 323 321 313 321 327 320 310 300 296 294 296 298 300 298 293 287 282 278 274 270 268 266 264 264 260 261 253 187
33 330 317 284 262 315 181 241 217 163 198 181 182 180 188 201 217 248 257 142 259 289 291 309 312 315 301 295 295 296 297 299 304 299 294 289 286 281 275 271 270 267 262 259 258 268 264 286 186
97 263 238 236 240 242 139 237 243 176 197 162 171 167 171 191 225 239 255 250 211 222 258 299 305 293 288 291 294 295 296 299 297 294 293 289 286 281 275 271 268 267 263 256 254 252 253 259 251
234 263 238 208 195 272 105 212 287 140 114 155 158 163 168 198 238 254 253 258 256 256 275 286 285 286 291 289 293 298 297 296 289 288 284 283 282 278 272 270 267 263 262 256 253 258 254 258 278
125 314 306 298 311 24 160 232 215 99 123 113 116 150 209 231 229 244 246 260 260 262 271 282 282 286 289 294 295 299 297 290 286 284 283 279 274 272 272 270 266 264 266 265 262 258 258 253 265
131 200 11 296 171 255 239 246 191 168 199 201 199 209 221 217 228 247 251 254 264 260 263 280 287 284 284 295 297 290 289 289 288 285 280 276 271 269 266 263 259 261 260 259 259 255 267 264 261
325 61 196 201 270 251 203 274 255 180 192 190 197 202 211 222 238 247 250 252 248 239 263 272 277 279 293 294 290 290 290 291 289 286 279 274 271 268 265 262 257 257 258 256 250 245 249 253 258
145 192 207 314 260 284 299 230 319 189 181 184 186 183 191 243 252 245 253 251 241 241 235 263 274 285 291 289 294 296 293 291 291 286 282 279 279 273 266 261 257 254 251 248 251 256 256 259 263
346 278 184 241 164 226 290 271 51 18 39 54 154 166 214 267 256 255 251 243 235 245 265 274 283 285 282 291 297 295 292 295 295 293 290 287 279 274 266 260 256 253 249 251 238 230 234 245 250